Simultaneous Nadir Overpasses (SNOs) Predictions

Prediction of SNOs between GOES-16 and METOP-B Satellite Orbit:

Table of predicted SNOs for the next 14.0 days since TLE Epoch: 1/6/2017
Index Date Time (GOES-16) GOES-16 Lat,Lon METOP-B Lat,Lon Distance(km) Time Diff (sec)
1 01/07/2017 15:46:12 0.01, -89.48 1.00, -93.81 493.40 80
2 01/08/2017 15:28:12 0.01, -89.49 -0.15, -88.82 77.00 80
3 01/10/2017 03:44:30 -0.01, -89.49 -0.92, -93.40 446.73 80
4 01/11/2017 03:26:31 -0.02, -89.50 0.24, -88.41 123.95 80
5 01/12/2017 15:42:41 0.02, -89.53 0.79, -92.96 391.33 80
6 01/13/2017 15:24:41 0.03, -89.54 -0.32, -87.96 179.73 80
7 01/15/2017 03:40:59 -0.03, -89.55 -0.72, -92.55 342.75 80
8 01/16/2017 03:22:59 -0.04, -89.56 0.39, -87.55 228.79 80
9 01/17/2017 15:39:10 0.04, -89.61 0.57, -92.12 285.30 80
10 01/18/2017 15:21:08 0.04, -89.63 -0.49, -87.11 286.58 80
11 01/20/2017 03:37:27 -0.04, -89.64 -0.52, -91.69 234.89 80




NCC Satellite Simultaneous Nadir Overpasses (SNOs) Prediction Service
